Current weather by "City, St" or "zip code"  
 
Advertise Here

Current Conditions: Davis-Monthan Air Force Base, AZ

Fair


57.0 F

Last Updated on Jan 17 2021, 7:58 pm MST
Humidity: 14%
Wind Speed: N 0.0 mph
Barometer 29.99 in
Dewpoint: 8.4 F
Visibility: 10.00 mi
Precip: --
Heat Index: NA
Wind Chill: NA
Current conditions at:

Davis-Monthan Air Force Base, AZ (KDMA)

Lat: 32.16667 Lon: 110.88333

Local Radar Image active severe weather and emergency alerts image image weather storm and storm spotter reports image weather observation monitoring service image
Local
Radar
Active
Alerts
Storm Reports Obs
Monitoring

Sign-up For Email & Text Message Weather Alert Notification Services


Advertise Here

Observation History for Davis-Monthan Air Force Base, AZ


Time Wind
(mph)
Vis
(mi)
Weather Precip (in) Temperature (F) Relative
Humidity
Wind
Chill
(F)
Heat
Index
(F)
Pressure
Air Dwpt altimeter
(in)
sea level
(mb)
Rmks
7:58 pm MST N 0.0 10.00 Fair -- 57.0 8.4 14% NA NA 29.99 1013.7
6:58 pm MST N 0.0 10.00 Fair -- 61.0 7.9 12% NA NA 30.00 1014.1
5:58 pm MST NW 6.9 10.00 Fair -- 66.0 8.1 10% NA NA 29.99 1013.7
4:58 pm MST NW 5.8 10.00 Fair -- 75.0 -0.8 5% NA NA 29.99 1013.1
3:58 pm MST NW 3.5 10.00 Fair -- 76.0 0.5 5% NA NA 29.99 1013.3
2:58 pm MST NW 4.6 10.00 Fair -- 77.0 4.8 6% NA NA 30.00 1013.5
1:58 pm MST N 4.6 10.00 Fair -- 76.0 3.9 6% NA NA 30.02 1014.0
12:58 pm MST E 4.6 10.00 Fair -- 74.0 9.0 8% NA NA 30.05 1015.4
11:58 am MST SW 5.8 10.00 Fair -- 70.0 8.6 9% NA NA 30.08 1016.4
10:58 am MST SW 6.9 10.00 Fair -- 68.0 9.1 10% NA NA 30.11 1017.5
9:58 am MST E 19.6 10.00 Fair -- 64.0 10.0 12% NA NA 30.11 1017.6
7:58 am MST SE 13.8 10.00 Fair -- 54.0 9.9 17% 50 NA 30.09 1017.0
6:58 am MST SE 11.5 10.00 Fair -- 51.0 10.0 19% 47 NA 30.10 1017.1
5:58 am MST N 0.0 10.00 Fair -- 44.0 9.0 23% NA NA 30.10 1017.3
4:58 am MST N 0.0 10.00 Fair -- 47.0 9.0 21% NA NA 30.08 1016.2
3:58 am MST S 4.6 10.00 Fair -- 42.0 9.1 25% 39 NA 30.08 1016.4
2:58 am MST N 0.0 10.00 Fair -- 45.0 10.2 24% NA NA 30.08 1016.2
1:58 am MST N 0.0 10.00 Fair -- 51.0 11.1 20% NA NA 30.07 1015.9
12:58 am MST SE 10.4 10.00 Fair -- 46.0 8.2 21% 41 NA 30.06 1015.7
11:58 pm MST E 4.6 10.00 Fair -- 49.0 5.9 17% 47 NA 30.07 1016.3
10:58 pm MST SE 8.1 10.00 Fair -- 48.0 6.6 18% 44 NA 30.07 1016.5
9:58 pm MST SE 9.2 10.00 Fair -- 51.0 6.6 16% 48 NA 30.06 1016.1
8:58 pm MST N 0.0 10.00 Fair -- 54.0 7.2 15% NA NA 30.04 1016.0

Regional Weather Observation


Tucson Marana Regional Airport, AZ (KAVQ)

Fair
59.0 F

Tucson, Tucson International Airport, AZ (KTUS)

Fair
62.0 F

Davis-Monthan Air Force Base, AZ (KDMA)

Fair
57.0 F

Coolidge Municipal Airport, AZ (KP08)

Fair
54.0 F

Casa Grande, Casa Grande Municipal Airport, AZ (KCGZ)

Fair
57.0 F

Ak-Chin Regional Airport, AZ (KA39)

Fair
54.0 F